Zurück zum Katalog

SL-14 R/B

AktivPO
NORAD 18794·ROCKET BODY·🇷🇺 Russia

Gestartet Jan 15, 1988 von Plesetsk Cosmodrome

Loading…

Nächste Überflüge (nächste 24 Stunden)

TLE

AktuellSource: Space-Track

Epoche: Sep 14, 2026, 11:48 UTC

1 18794U 88002G   26257.49226377  .00000037  00000-0  16570-3 0  9991
2 18794  82.6049 326.5729 0036482 275.9120  94.9845 12.55586502771950

Verfolge SL-14 R/B in Echtzeit mit AllMySat

Download on the App Store